Weather History for Northway, AK

Change the Weather History Date:

Monday, September 9, 2013

  Actual Average Record
Temperature  
Mean Temperature 46 °F -  
Max Temperature 60 °F 54 °F 69 °F (1950)
Min Temperature 33 °F 33 °F 19 °F (2004)
Degree Days  
Heating Degree Days 19    
Moisture  
Dew Point 36 °F    
Average Humidity 71    
Maximum Humidity 100    
Minimum Humidity 42    
Precipitation  
Precipitation 0.00 in - - ()
Sea Level Pressure  
Sea Level Pressure 29.89 in    
Wind  
Wind Speed 2 mph (ESE)    
Max Wind Speed 7 mph    
Max Gust Speed -    
Visibility 10 miles    
Events Snow    
Averages and records for this station are not official NWS values.
T = Trace of Precipitation, MM = Missing Value Source: NWS Daily Summary

Daily Weather History Graph

Daily Weather History Graph

Search for Another Location

Airport:

Trip Planner

Search our weather history database for the weather conditions in past years. The results will help you decide how hot, cold, wet, or windy it might be!

Date:

Astronomy

Sep. 09, 2013 Rise Set
Actual Time 6:37 AM AKDT 8:10 PM AKDT
Civil Twilight 5:49 AM AKDT 8:58 PM AKDT
Nautical Twilight 4:47 AM AKDT 9:59 PM AKDT
Astronomical Twilight 3:28 AM AKDT 11:16 PM AKDT
Moon 12:52 PM AKDT (9/9) 8:45 PM AKDT (9/9)
Length of Visible Light 15h 09m
Length of Day
13h 33m
Waxing Crescent, 20% of the Moon is Illuminated
Sep 9
Waxing Crescent
Sep 12
First Quarter
Sep 19
Full
Sep 26
Last Quarter
Oct 4
New

Hourly Weather History & Observations

Time (AKDT) Temp. Windchill Dew Point Humidity Pressure Visibility Wind Dir Wind Speed Gust Speed Precip Events Conditions
12:53 AM 42.1 °F - 39.9 °F 92% 29.87 in 10.0 mi Calm Calm - N/A   Scattered Clouds
1:53 AM 37.9 °F - 36.0 °F 93% 29.88 in 10.0 mi Calm Calm - N/A   Scattered Clouds
2:53 AM 36.0 °F - 36.0 °F 100% 29.90 in 9.0 mi Calm Calm - 0.00 in Snow Light Snow
3:53 AM 36.0 °F 33.3 °F 34.0 °F 93% 29.91 in 10.0 mi ESE 3.5 mph - 0.00 in Snow Light Snow
4:53 AM 33.1 °F - 32.0 °F 96% 29.91 in 10.0 mi Calm Calm - 0.00 in   Scattered Clouds
5:53 AM 35.1 °F - 33.1 °F 92% 29.91 in 10.0 mi Calm Calm - N/A   Scattered Clouds
6:53 AM 33.1 °F - 32.0 °F 96% 29.93 in 10.0 mi Calm Calm - N/A   Clear
7:53 AM 37.0 °F 34.5 °F 35.1 °F 93% 29.94 in 9.0 mi East 3.5 mph - 0.00 in   Clear
8:53 AM 42.1 °F 39.2 °F 37.9 °F 85% 29.93 in 10.0 mi SSE 4.6 mph - 0.00 in   Clear
9:53 AM 46.9 °F - 37.9 °F 71% 29.93 in 10.0 mi SE 5.8 mph - N/A   Scattered Clouds
10:53 AM 51.1 °F - 35.1 °F 54% 29.93 in 10.0 mi SSE 6.9 mph - N/A   Scattered Clouds
11:53 AM 51.1 °F - 37.0 °F 59% 29.93 in 10.0 mi ESE 4.6 mph - N/A   Mostly Cloudy
12:53 PM 53.1 °F - 35.1 °F 50% 29.92 in 10.0 mi SE 4.6 mph - N/A   Overcast
1:53 PM 55.0 °F - 37.0 °F 51% 29.92 in 10.0 mi East 4.6 mph - N/A   Mostly Cloudy
2:53 PM 55.9 °F - 37.0 °F 49% 29.91 in 10.0 mi East 5.8 mph - N/A   Mostly Cloudy
3:53 PM 59.0 °F - 36.0 °F 42% 29.89 in 10.0 mi SE 6.9 mph - N/A   Scattered Clouds
4:53 PM 57.9 °F - 36.0 °F 44% 29.88 in 10.0 mi ESE 4.6 mph - N/A   Scattered Clouds
5:53 PM 57.9 °F - 37.0 °F 46% 29.86 in 10.0 mi East 6.9 mph - N/A   Scattered Clouds
6:53 PM 55.9 °F - 37.0 °F 49% 29.86 in 10.0 mi East 4.6 mph - N/A   Scattered Clouds
7:53 PM 51.1 °F - 41.0 °F 68% 29.85 in 10.0 mi ESE 3.5 mph - N/A   Clear
8:53 PM 50.0 °F - 37.9 °F 63% 29.84 in 10.0 mi ESE 5.8 mph - N/A   Clear
9:53 PM 50.0 °F - 36.0 °F 59% 29.83 in 10.0 mi SE 3.5 mph - N/A   Mostly Cloudy
10:53 PM 42.1 °F 40.2 °F 36.0 °F 79% 29.84 in 10.0 mi ENE 3.5 mph - N/A   Mostly Cloudy
11:53 PM 42.1 °F - 36.0 °F 79% 29.85 in 10.0 mi Calm Calm - N/A   Mostly Cloudy